Dewpoint
47 48 48 49 49 50 50 51 51 51 51 52 52 53 54 55 55 55 55 56 55 55 54 54 54 54 55 55 55 55 55 55 56 56 56 56 56 57 58 58 59 60 60 60 61 61 61 61 61 60 59 60 59 57 57 58 59 59 59 58 57 57 57 56 56 56 56 55 55
47 47 48 48 48 49 49 50 50 50 51 52 52 53 54 55 55 55 55 55 55 55 55 54 54 54 54 54 55 55 55 55 55 55 55 55 56 56 56 57 57 58 59 60 60 60 60 60 60 58 57 57 56 55 54 55 57 57 57 56 55 54 54 53 53 53 53 53 52
47 47 47 47 47 47 48 48 48 48 49 50 51 52 53 54 54 54 54 55 55 55 55 54 54 54 54 54 54 54 54 54 54 54 54 54 55 55 55 56 56 56 56 57 57 57 57 57 56 56 55 55 54 53 53 53 54 54 53 52 52 51 51 50 51 51 51 50 50
46 46 46 46 46 47 47 47 47 47 48 49 50 51 52 53 53 54 54 53 53 54 54 54 53 53 53 53 53 53 54 54 54 54 53 53 53 54 54 55 55 55 55 55 56 56 55 55 55 54 53 53 52 51 51 51 51 51 50 50 50 50 50 49 49 49 48 47 47
45 46 46 46 46 46 45 45 45 46 47 47 48 49 50 51 51 51 52 52 51 52 52 52 52 52 52 52 52 52 52 52 52 53 52 52 53 53 53 54 54 54 54 55 55 55 54 54 53 53 52 52 51 51 50 50 50 49 49 49 49 49 48 48 47 47 47 46 46
44 44 45 45 45 45 45 44 45 45 46 46 46 47 47 48 48 49 49 50 49 49 49 50 51 51 51 51 51 51 51 51 51 51 51 51 52 52 52 52 53 53 53 54 54 53 53 53 52 51 51 51 50 50 50 50 49 49 48 47 47 47 47 47 47 47 47 46 45
43 43 43 44 44 44 44 44 44 44 45 45 45 45 45 46 46 47 47 47 47 47 47 48 48 49 49 50 49 49 49 50 50 50 50 50 51 51 51 51 51 52 52 52 53 52 52 52 51 51 50 50 50 49 49 49 49 48 47 46 46 47 47 47 47 46 46 45 45
42 42 42 43 43 44 43 44 44 44 44 44 43 44 44 44 44 45 45 46 46 46 46 46 46 47 47 47 47 47 47 47 48 48 48 48 49 49 49 49 50 50 51 51 51 51 51 51 50 50 49 49 48 48 48 47 47 46 46 45 45 46 46 46 46 46 45 44 43
42 42 42 42 43 43 43 43 43 43 43 43 43 43 43 43 43 43 44 44 44 44 45 45 45 45 45 45 45 45 45 45 45 45 46 46 46 46 47 47 47 48 48 49 50 50 50 50 49 48 48 47 47 47 46 46 45 44 44 44 44 44 44 45 44 44 43 42 41
41 41 42 42 42 42 43 43 43 43 43 42 42 43 43 43 43 43 43 43 43 43 43 44 44 44 44 44 44 43 43 44 43 43 43 43 44 44 44 45 46 46 47 47 48 48 48 47 47 46 46 46 46 45 44 44 44 44 44 43 43 42 42 42 42 42 42 41 39
40 41 41 42 42 42 43 43 43 43 43 42 42 42 42 42 42 42 42 42 42 42 42 42 43 43 43 43 43 42 42 43 43 42 42 42 42 43 43 43 44 44 45 46 46 47 46 46 45 44 44 45 44 43 43 43 43 43 43 42 42 42 42 41 41 41 41 40 39
40 40 41 41 42 42 42 43 43 42 42 42 42 42 42 42 42 42 42 42 42 42 42 42 42 42 42 42 42 42 42 42 42 42 42 42 42 42 42 42 42 43 43 44 44 45 45 44 44 43 43 44 43 43 42 42 42 42 42 41 41 40 40 40 40 40 39 39 38
39 40 40 41 41 42 42 42 42 42 42 42 42 42 41 41 42 42 42 42 42 42 42 42 42 41 41 41 41 42 42 42 42 42 42 42 42 42 42 42 42 42 42 43 43 43 43 43 42 42 42 42 43 42 42 42 41 41 41 40 40 39 39 38 38 39 39 38 38
39 39 40 40 41 42 42 42 42 42 42 41 41 41 41 41 41 41 41 42 42 42 42 42 41 41 41 41 41 41 41 41 41 41 41 42 41 42 42 42 42 42 42 42 42 42 42 42 42 42 42 41 42 42 42 41 41 40 40 39 38 38 38 38 38 38 38 38 38
39 39 39 39 40 41 42 42 42 42 42 41 41 41 41 41 41 41 41 41 41 41 41 41 41 41 41 41 41 41 41 41 41 41 41 41 41 41 41 41 41 41 41 41 41 41 41 41 41 41 41 40 40 40 41 41 41 40 39 39 38 38 38 38 38 38 38 38 38
38 38 39 39 40 40 41 42 42 42 42 42 42 42 42 42 42 41 41 41 41 41 41 41 41 41 41 41 41 41 41 41 41 41 41 41 41 41 41 40 40 40 40 40 40 40 40 40 40 41 41 41 40 40 40 40 40 40 39 39 39 38 38 38 38 38 38 38 38
39 39 39 39 39 40 40 41 41 42 42 42 42 42 42 42 42 42 42 41 41 41 41 41 41 41 41 41 41 40 40 40 40 40 40 40 40 40 40 40 40 40 40 40 40 40 40 40 40 41 41 41 41 40 40 40 40 39 39 39 39 38 38 38 38 38 38 38 37
39 39 39 39 39 39 40 40 41 41 41 41 41 42 42 42 42 42 42 41 41 41 41 41 41 40 40 40 40 40 40 40 40 40 40 40 39 39 39 39 39 39 39 39 39 39 40 40 40 40 40 40 40 40 39 39 39 39 38 38 38 38 38 38 38 38 38 38 37
39 39 39 39 39 39 40 40 40 40 40 40 40 41 41 41 41 41 41 41 41 41 40 40 40 40 40 40 40 40 40 40 39 39 39 39 39 38 38 38 38 38 38 38 39 39 40 40 40 40 40 40 39 39 39 38 38 38 38 38 38 38 38 38 38 38 38 38 37
39 39 39 39 39 39 40 40 40 40 40 40 40 40 40 41 40 40 40 40 40 40 40 40 40 40 39 39 39 39 39 39 39 38 38 38 38 38 38 38 38 38 38 38 38 39 39 39 39 39 39 39 38 38 38 38 38 38 38 38 38 38 38 38 37 37 37 37 37
40 40 39 39 39 39 39 40 40 40 40 40 40 40 40 40 40 40 40 40 40 40 40 40 39 39 39 39 39 39 39 39 38 38 38 38 37 37 37 37 37 38 38 37 37 38 38 38 38 38 38 38 38 38 38 38 38 38 38 38 38 38 38 38 38 37 37 37 38
40 40 40 40 39 39 39 40 40 40 40 40 40 40 40 40 40 40 40 40 40 40 40 40 39 39 39 39 38 38 38 38 37 37 37 37 37 37 37 37 38 38 38 38 37 37 37 36 36 36 37 37 38 38 38 38 38 38 37 37 37 37 37 37 38 38 38 38 38
40 40 40 40 40 40 40 40 40 40 39 39 39 39 39 39 39 40 40 40 40 39 39 39 39 39 38 38 38 38 37 37 37 37 37 37 37 37 37 37 38 38 38 38 37 37 37 36 36 36 36 37 38 38 38 38 37 37 37 37 36 36 37 37 37 37 38 38 38
41 40 40 40 40 40 39 39 39 39 39 39 39 39 39 39 39 39 39 39 39 38 38 38 38 38 38 38 38 37 37 37 37 37 37 37 37 37 37 37 37 37 36 36 36 37 37 36 36 36 37 37 37 37 36 35 36 36 36 35 35 35 35 36 36 36 37 37 37
41 40 40 40 40 40 39 39 39 39 39 39 39 39 39 39 39 38 38 38 38 38 38 38 38 38 38 37 37 37 37 37 37 37 37 37 37 37 37 36 36 35 35 35 36 37 37 36 36 35 35 36 35 35 34 35 35 34 34 34 34 34 34 34 33 33 33 34 34
40 40 40 40 40 40 39 39 39 39 39 39 39 39 39 39 39 38 38 38 38 38 38 39 39 38 38 38 38 38 38 38 37 37 37 37 37 37 37 36 35 35 36 36 37 37 37 37 36 36 35 34 34 34 34 34 34 34 34 34 34 34 33 33 32 31 30 29 29
40 40 40 40 40 39 39 39 39 39 39 39 39 40 40 40 39 39 39 39 40 40 40 40 40 40 39 39 39 39 39 39 38 38 38 38 38 38 38 38 37 37 38 38 38 38 38 37 37 36 36 35 35 35 34 34 33 33 34 33 33 33 32 32 31 29 28 27 27
40 40 39 39 39 39 39 40 40 39 39 39 39 39 39 39 39 39 39 39 40 40 40 40 40 40 40 40 40 40 40 40 40 39 39 40 39 38 39 39 38 38 38 38 38 38 38 38 37 37 36 36 36 36 35 34 33 33 33 32 32 31 31 30 29 28 28 27 27
40 40 40 40 40 40 40 40 40 39 39 39 39 39 38 38 38 38 38 39 39 39 39 39 40 40 40 40 40 40 40 40 40 40 40 40 39 39 39 40 40 39 39 39 39 38 38 38 37 37 37 36 36 35 34 33 32 32 31 30 30 29 29 29 27 26 26 25 25
40 40 40 40 40 40 40 39 39 39 39 39 39 38 38 38 38 38 38 38 38 38 38 39 39 39 39 39 39 39 39 39 39 39 40 40 39 39 40 40 40 40 40 39 39 38 38 38 37 37 37 36 33 32 31 31 30 30 29 27 27 27 27 26 24 24 24 24 24
40 40 40 40 39 39 39 39 39 39 38 38 38 38 38 38 38 38 38 38 38 38 38 38 38 38 38 38 39 39 39 39 39 39 39 39 39 40 40 40 40 40 40 39 39 38 38 38 37 37 35 33 31 29 29 28 27 26 25 24 23 23 23 22 21 21 21 22 23
40 40 39 39 39 39 39 38 38 38 38 38 38 38 38 37 37 38 38 38 38 38 38 38 38 38 38 38 38 38 38 38 38 39 39 39 39 40 40 40 40 40 40 39 39 38 38 37 37 35 33 31 28 26 24 25 24 22 21 20 20 20 20 21 20 20 20 20 21
39 39 39 39 38 38 38 38 38 38 38 38 37 37 37 37 37 37 37 37 37 37 37 37 37 37 37 37 38 38 38 38 38 38 39 39 39 39 40 40 40 39 39 39 38 38 37 36 35 33 32 30 26 24 23 23 22 21 20 19 18 18 17 17 17 17 17 17 18
39 39 39 38 38 38 38 38 38 38 37 37 37 37 36 36 36 36 36 36 37 37 37 37 37 37 37 37 37 37 37 37 37 38 38 38 39 39 39 39 39 39 38 38 38 37 36 35 33 32 31 29 25 22 21 21 21 20 20 19 17 16 14 13 14 15 15 15 15
39 38 38 38 38 38 38 38 37 37 37 36 36 36 36 36 35 36 36 36 36 36 36 36 36 36 36 36 35 35 35 35 35 35 35 36 36 37 38 38 38 38 37 37 36 35 35 33 32 31 29 27 23 21 20 20 20 20 19 19 18 16 15 14 13 12 12 13 13
38 38 38 38 38 38 37 37 37 36 36 36 35 35 35 35 35 35 35 35 35 35 35 35 35 35 34 33 33 32 31 31 31 32 32 32 32 32 33 33 34 35 35 35 35 34 33 32 31 30 28 24 21 20 20 20 19 19 19 19 18 16 15 14 13 13 12 12 12
38 38 38 38 37 37 37 37 36 36 35 35 35 34 34 34 34 35 35 34 34 34 34 34 33 33 32 30 29 27 27 27 27 27 27 29 28 28 28 29 29 31 33 34 33 33 32 31 30 29 26 21 19 19 19 19 19 18 18 18 17 15 14 13 13 13 13 14 16
38 38 38 37 37 36 36 36 36 35 34 34 34 34 34 34 34 34 34 33 33 33 33 32 31 30 29 28 25 24 23 23 24 23 23 24 25 25 26 27 27 29 31 32 32 31 31 30 30 28 25 20 19 19 19 18 18 18 18 17 17 16 15 13 12 13 14 16 24
37 37 37 36 35 35 35 35 34 34 33 33 33 33 33 33 33 33 33 33 33 33 32 31 30 29 28 26 24 22 21 21 21 21 20 21 24 26 27 26 27 29 30 31 30 30 30 30 30 29 26 22 19 18 18 17 17 16 16 16 17 17 16 15 14 14 15 17 26
36 36 35 35 35 34 34 34 33 33 33 33 33 33 33 33 33 33 33 32 32 31 30 29 28 27 27 26 23 20 20 19 19 20 20 21 24 27 28 24 24 26 28 29 30 30 30 30 30 30 27 21 18 17 18 17 17 17 16 15 15 16 17 16 15 15 15 16 21
36 35 35 35 34 34 34 33 33 33 33 33 32 32 32 32 32 31 31 31 30 29 28 26 25 25 25 25 21 20 19 20 18 18 19 20 22 24 24 22 23 24 25 27 29 30 30 30 31 30 27 21 17 17 18 18 19 18 17 15 14 15 16 17 17 17 16 16 16